| time (UTC) | temp F | wind direction | speed MPH | gust MPH | rain 1hr in | rain 24hr in | rain mn in | humidity % | barometer mb |
| 20260901060030 | 62 | 236 | 11.0 | 19.0 | 0.00 | 0.00 | 0.00 | 89 | 1016.7 |
| 20260901055030 | 61 | 224 | 9.0 | 14.0 | 0.00 | 0.00 | 0.00 | 90 | 1016.9 |
| 20260901054029 | 61 | 209 | 7.0 | 13.0 | 0.00 | 0.00 | 0.00 | 91 | 1016.7 |
| 20260901053038 | 61 | 218 | 7.0 | 13.0 | 0.00 | 0.00 | 0.00 | 91 | 1016.7 |
| 20260901052030 | 60 | 209 | 6.0 | 11.0 | 0.00 | 0.00 | 0.00 | 91 | 1016.6 |
| 20260901051030 | 61 | 212 | 7.0 | 11.0 | 0.00 | 0.00 | 0.00 | 91 | 1016.5 |
| 20260901050030 | 60 | 205 | 6.0 | 11.0 | 0.00 | 0.00 | 0.00 | 91 | 1016.5 |
| 20260901045030 | 60 | 191 | 6.0 | 10.0 | 0.00 | 0.00 | 0.00 | 90 | 1016.4 |
| 20260901044030 | 60 | 189 | 6.0 | 11.0 | 0.00 | 0.00 | 0.00 | 90 | 1016.4 |
| 20260901043030 | 61 | 190 | 6.0 | 10.0 | 0.00 | 0.00 | 0.00 | 90 | 1016.3 |
| 20260901042030 | 61 | 195 | 5.0 | 10.0 | 0.00 | 0.00 | 0.00 | 89 | 1016.2 |
| 20260901041030 | 61 | 199 | 6.0 | 10.0 | 0.00 | 0.00 | 0.00 | 89 | 1016.2 |
| 20260901040030 | 62 | 193 | 6.0 | 9.0 | 0.00 | 0.00 | 0.00 | 88 | 1016.2 |
| 20260901035030 | 62 | 203 | 6.0 | 11.0 | 0.00 | 0.00 | 0.00 | 87 | 1016.1 |
| 20260901034030 | 63 | 209 | 6.0 | 10.0 | 0.00 | 0.00 | 0.00 | 86 | 1016.1 |
| 20260901033030 | 64 | 248 | 11.0 | 16.0 | 0.00 | 0.00 | 0.00 | 85 | 1016.1 |
| 20260901032030 | 64 | 247 | 13.0 | 17.0 | 0.00 | 0.00 | 0.00 | 86 | 1015.9 |
| 20260901031031 | 63 | 253 | 9.0 | 17.0 | 0.00 | 0.00 | 0.00 | 90 | 1015.8 |
| 20260901030030 | 62 | 203 | 4.0 | 9.0 | 0.00 | 0.00 | 0.00 | 89 | 1015.9 |
| 20260901025030 | 62 | 217 | 7.0 | 11.0 | 0.00 | 0.00 | 0.00 | 89 | 1015.9 |
| 20260901024030 | 62 | 205 | 7.0 | 11.0 | 0.00 | 0.00 | 0.00 | 89 | 1015.9 |
| 20260901023030 | 62 | 216 | 6.0 | 12.0 | 0.00 | 0.00 | 0.00 | 88 | 1015.8 |
| 20260901022029 | 63 | 208 | 6.0 | 12.0 | 0.00 | 0.00 | 0.00 | 87 | 1015.9 |
| 20260901021030 | 64 | 213 | 9.0 | 15.0 | 0.00 | 0.00 | 0.00 | 86 | 1015.9 |
| 20260901020030 | 64 | 243 | 10.0 | 15.0 | 0.00 | 0.00 | 0.00 | 87 | 1015.7 |
| 20260901015030 | 64 | 231 | 12.0 | 15.0 | 0.00 | 0.00 | 0.00 | 87 | 1015.6 |
| 20260901014030 | 64 | 242 | 11.0 | 15.0 | 0.00 | 0.00 | 0.00 | 88 | 1015.5 |
| 20260901013030 | 63 | 225 | 8.0 | 14.0 | 0.00 | 0.00 | 0.00 | 89 | 1015.6 |
| 20260901012030 | 62 | 223 | 9.0 | 15.0 | 0.00 | 0.00 | 0.00 | 89 | 1015.6 |
| 20260901011031 | 62 | 218 | 11.0 | 16.0 | 0.00 | 0.00 | 0.00 | 89 | 1015.6 |
| 20260901010030 | 62 | 219 | 9.0 | 15.0 | 0.00 | 0.00 | 0.00 | 89 | 1015.6 |
| 20260901005030 | 62 | 215 | 8.0 | 16.0 | 0.00 | 0.00 | 0.00 | 88 | 1015.5 |
| 20260901004029 | 62 | 207 | 8.0 | 16.0 | 0.00 | 0.00 | 0.00 | 88 | 1015.5 |
| 20260901003030 | 62 | 203 | 9.0 | 13.0 | 0.00 | 0.00 | 0.00 | 88 | 1015.4 |
| 20260901002030 | 62 | 203 | 8.0 | 14.0 | 0.00 | 0.00 | 0.00 | 87 | 1015.3 |
| 20260901001030 | 62 | 203 | 9.0 | 13.0 | 0.00 | 0.00 | 0.00 | 86 | 1015.3 |
| 20260901000030 | 63 | 214 | 8.0 | 14.0 | 0.00 | 0.00 | 0.00 | 87 | 1015.3 |
| 20260831235029 | 63 | 208 | 7.0 | 12.0 | 0.00 | 0.00 | 0.00 | 87 | 1015.3 |
| 20260831234030 | 63 | 206 | 6.0 | 9.0 | 0.00 | 0.00 | 0.00 | 87 | 1015.2 |
| 20260831233030 | 63 | 215 | 6.0 | 10.0 | 0.00 | 0.00 | 0.00 | 86 | 1015.1 |
| 20260831232030 | 63 | 201 | 6.0 | 10.0 | 0.00 | 0.00 | 0.00 | 86 | 1015.0 |
| 20260831231029 | 63 | 200 | 6.0 | 10.0 | 0.00 | 0.00 | 0.00 | 86 | 1015.1 |
| 20260831230030 | 63 | 204 | 6.0 | 9.0 | 0.00 | 0.00 | 0.00 | 86 | 1015.2 |
| 20260831225030 | 63 | 201 | 5.0 | 9.0 | 0.00 | 0.00 | 0.00 | 86 | 1015.2 |
| 20260831224030 | 64 | 208 | 7.0 | 11.0 | 0.00 | 0.00 | 0.00 | 86 | 1015.1 |
| 20260831223030 | 63 | 208 | 7.0 | 11.0 | 0.00 | 0.00 | 0.00 | 86 | 1015.1 |
| 20260831222030 | 64 | 206 | 6.0 | 9.0 | 0.00 | 0.00 | 0.00 | 85 | 1015.1 |
| 20260831221030 | 65 | 218 | 7.0 | 13.0 | 0.00 | 0.00 | 0.00 | 85 | 1015.1 |
| 20260831220030 | 65 | 242 | 12.0 | 16.0 | 0.00 | 0.00 | 0.15 | 85 | 1014.9 |
| 20260831215030 | 65 | 233 | 11.0 | 15.0 | 0.00 | 0.00 | 0.15 | 85 | 1014.9 |
| 20260831214030 | 65 | 245 | 13.0 | 17.0 | 0.00 | 0.00 | 0.15 | 85 | 1014.8 |
| 20260831213030 | 65 | 244 | 12.0 | 17.0 | 0.00 | 0.00 | 0.15 | 85 | 1014.7 |
| 20260831212030 | 65 | 241 | 13.0 | 17.0 | 0.00 | 0.00 | 0.15 | 85 | 1014.7 |
| 20260831211029 | 65 | 244 | 13.0 | 17.0 | 0.00 | 0.00 | 0.15 | 84 | 1014.5 |
| 20260831210030 | 65 | 242 | 13.0 | 20.0 | 0.00 | 0.00 | 0.15 | 84 | 1014.4 |
| 20260831205030 | 65 | 246 | 15.0 | 20.0 | 0.00 | 0.00 | 0.15 | 84 | 1014.3 |
| 20260831204029 | 65 | 246 | 16.0 | 21.0 | 0.00 | 0.00 | 0.15 | 85 | 1014.3 |
| 20260831203030 | 65 | 258 | 18.0 | 23.0 | 0.00 | 0.00 | 0.15 | 84 | 1014.2 |
| 20260831202030 | 65 | 260 | 22.0 | 26.0 | 0.00 | 0.00 | 0.15 | 84 | 1014.1 |
| 20260831201030 | 65 | 252 | 21.0 | 26.0 | 0.00 | 0.00 | 0.15 | 84 | 1013.9 |
| 20260831200030 | 65 | 248 | 23.0 | 30.0 | 0.00 | 0.00 | 0.15 | 84 | 1013.9 |
| 20260831195030 | 65 | 251 | 24.0 | 30.0 | 0.00 | 0.00 | 0.15 | 84 | 1013.6 |
| 20260831194030 | 65 | 246 | 21.0 | 28.0 | 0.00 | 0.00 | 0.15 | 83 | 1013.4 |
| 20260831193030 | 65 | 257 | 22.0 | 28.0 | 0.00 | 0.00 | 0.15 | 83 | 1013.4 |
| 20260831192030 | 65 | 249 | 22.0 | 32.0 | 0.00 | 0.00 | 0.15 | 83 | 1013.1 |
| 20260831191030 | 65 | 252 | 21.0 | 28.0 | 0.00 | 0.00 | 0.15 | 83 | 1013.2 |
| 20260831190030 | 65 | 252 | 23.0 | 30.0 | 0.00 | 0.00 | 0.15 | 83 | 1012.9 |
| 20260831185030 | 65 | 253 | 24.0 | 31.0 | 0.00 | 0.00 | 0.15 | 83 | 1012.7 |
| 20260831184029 | 65 | 256 | 24.0 | 31.0 | 0.00 | 0.00 | 0.15 | 83 | 1012.6 |
| 20260831183030 | 65 | 260 | 25.0 | 31.0 | 0.00 | 0.00 | 0.15 | 84 | 1012.3 |
| 20260831182030 | 65 | 247 | 25.0 | 34.0 | 0.00 | 0.00 | 0.15 | 84 | 1012.2 |
| 20260831181030 | 65 | 240 | 26.0 | 32.0 | 0.00 | 0.00 | 0.15 | 84 | 1012.0 |
| 20260831180030 | 65 | 237 | 24.0 | 33.0 | 0.00 | 0.00 | 0.15 | 85 | 1012.0 |
| 20260831175030 | 64 | 249 | 26.0 | 33.0 | 0.00 | 0.00 | 0.15 | 85 | 1011.7 |
| 20260831174029 | 65 | 237 | 27.0 | 38.0 | 0.00 | 0.00 | 0.15 | 83 | 1011.4 |
| 20260831173033 | 65 | 259 | 30.0 | 39.0 | 0.00 | 0.00 | 0.15 | 83 | 1011.2 |
| 20260831172030 | 65 | 256 | 29.0 | 38.0 | 0.00 | 0.00 | 0.15 | 81 | 1011.2 |
| 20260831171030 | 65 | 255 | 34.0 | 42.0 | 0.00 | 0.00 | 0.15 | 81 | 1010.9 |
| 20260831170030 | 65 | 252 | 34.0 | 47.0 | 0.00 | 0.00 | 0.15 | 83 | 1010.8 |
| 20260831165030 | 65 | 251 | 28.0 | 42.0 | 0.00 | 0.00 | 0.15 | 81 | 1010.5 |
| 20260831164030 | 66 | 246 | 25.0 | 34.0 | 0.00 | 0.00 | 0.15 | 81 | 1010.8 |
| 20260831163030 | 66 | 243 | 26.0 | 35.0 | 0.00 | 0.00 | 0.15 | 79 | 1010.6 |
| 20260831162029 | 66 | 243 | 26.0 | 36.0 | 0.00 | 0.00 | 0.15 | 80 | 1010.4 |
| 20260831161030 | 66 | 257 | 25.0 | 36.0 | 0.00 | 0.00 | 0.15 | 79 | 1010.1 |
| 20260831160030 | 66 | 249 | 25.0 | 33.0 | 0.00 | 0.00 | 0.15 | 80 | 1010.2 |
| 20260831155030 | 65 | 241 | 21.0 | 29.0 | 0.00 | 0.00 | 0.15 | 82 | 1010.2 |
| 20260831154030 | 65 | 250 | 25.0 | 37.0 | 0.00 | 0.00 | 0.15 | 81 | 1010.1 |
| 20260831153030 | 65 | 250 | 26.0 | 32.0 | 0.00 | 0.00 | 0.15 | 80 | 1009.9 |
| 20260831152029 | 65 | 249 | 27.0 | 36.0 | 0.00 | 0.00 | 0.15 | 78 | 1009.8 |
| 20260831151030 | 65 | 257 | 27.0 | 35.0 | 0.00 | 0.00 | 0.15 | 78 | 1009.7 |
| 20260831150030 | 65 | 250 | 24.0 | 33.0 | 0.00 | 0.00 | 0.15 | 80 | 1009.6 |
| 20260831145030 | 64 | 240 | 22.0 | 30.0 | 0.00 | 0.00 | 0.15 | 82 | 1009.7 |
| 20260831144030 | 64 | 246 | 23.0 | 31.0 | 0.00 | 0.00 | 0.15 | 82 | 1009.6 |
| 20260831143030 | 64 | 257 | 24.0 | 32.0 | 0.00 | 0.00 | 0.15 | 82 | 1009.4 |
| 20260831142029 | 64 | 233 | 25.0 | 35.0 | 0.00 | 0.00 | 0.15 | 81 | 1009.3 |
| 20260831141030 | 64 | 239 | 27.0 | 33.0 | 0.00 | 0.00 | 0.15 | 80 | 1009.0 |
| 20260831140030 | 65 | 251 | 28.0 | 38.0 | 0.00 | 0.00 | 0.15 | 80 | 1008.6 |
| 20260831135030 | 64 | 253 | 24.0 | 31.0 | 0.00 | 0.00 | 0.15 | 82 | 1008.6 |
| 20260831134030 | 64 | 258 | 28.0 | 37.0 | 0.00 | 0.00 | 0.15 | 81 | 1008.6 |
| 20260831133030 | 64 | 247 | 26.0 | 36.0 | 0.00 | 0.00 | 0.15 | 80 | 1008.5 |
| 20260831132030 | 65 | 247 | 22.0 | 27.0 | 0.00 | 0.00 | 0.15 | 80 | 1008.6 |
| 20260831131030 | 64 | 240 | 25.0 | 32.0 | 0.00 | 0.00 | 0.15 | 80 | 1008.4 |
| 20260831130030 | 64 | 239 | 26.0 | 32.0 | 0.00 | 0.00 | 0.15 | 79 | 1008.2 |
| 20260831125030 | 64 | 248 | 26.0 | 36.0 | 0.00 | 0.00 | 0.15 | 80 | 1008.0 |
| 20260831124030 | 63 | 250 | 28.0 | 39.0 | 0.00 | 0.00 | 0.15 | 81 | 1008.0 |
| 20260831123029 | 64 | 250 | 22.0 | 33.0 | 0.00 | 0.00 | 0.15 | 80 | 1007.8 |
| 20260831122030 | 64 | 232 | 22.0 | 28.0 | 0.00 | 0.00 | 0.15 | 81 | 1007.9 |
| 20260831121030 | 64 | 238 | 22.0 | 34.0 | 0.00 | 0.00 | 0.15 | 81 | 1007.6 |
| 20260831120030 | 64 | 236 | 23.0 | 32.0 | 0.00 | 0.00 | 0.15 | 84 | 1007.6 |
| 20260831115030 | 63 | 234 | 15.0 | 24.0 | 0.00 | 0.00 | 0.15 | 88 | 1007.7 |
| 20260831114030 | 61 | 233 | 18.0 | 30.0 | 0.00 | 0.00 | 0.15 | 88 | 1007.8 |
| 20260831113033 | 61 | 238 | 24.0 | 37.0 | 0.00 | 0.00 | 0.14 | 87 | 1007.7 |
| 20260831112030 | 62 | 202 | 14.0 | 26.0 | 0.00 | 0.00 | 0.14 | 87 | 1007.7 |
| 20260831111030 | 60 | 210 | 11.0 | 22.0 | 0.00 | 0.00 | 0.14 | 89 | 1007.7 |
| 20260831110030 | 59 | 214 | 11.0 | 22.0 | 0.00 | 0.00 | 0.14 | 88 | 1007.5 |
| 20260831105029 | 59 | 204 | 12.0 | 24.0 | 0.00 | 0.00 | 0.14 | 88 | 1007.6 |
| 20260831104029 | 60 | 230 | 26.0 | 38.0 | 0.00 | 0.00 | 0.14 | 87 | 1007.5 |
| 20260831103030 | 61 | 238 | 31.0 | 43.0 | 0.00 | 0.00 | 0.12 | 85 | 1006.6 |
| 20260831102032 | 65 | 236 | 17.0 | 31.0 | 0.00 | 0.00 | 0.12 | 78 | 1007.0 |
| 20260831101030 | 66 | 212 | 15.0 | 26.0 | 0.00 | 0.00 | 0.12 | 76 | 1006.9 |
| 20260831100030 | 66 | 203 | 16.0 | 33.0 | 0.00 | 0.00 | 0.12 | 77 | 1006.9 |
| 20260831095030 | 65 | 215 | 11.0 | 26.0 | 0.00 | 0.00 | 0.12 | 80 | 1007.0 |
| 20260831094030 | 65 | 206 | 13.0 | 29.0 | 0.00 | 0.00 | 0.12 | 81 | 1007.0 |
| 20260831093030 | 64 | 215 | 15.0 | 28.0 | 0.00 | 0.00 | 0.12 | 82 | 1006.9 |
| 20260831092030 | 64 | 211 | 11.0 | 25.0 | 0.00 | 0.00 | 0.12 | 84 | 1006.9 |
| 20260831091030 | 64 | 194 | 8.0 | 21.0 | 0.00 | 0.00 | 0.12 | 85 | 1006.6 |
| 20260831090030 | 64 | 197 | 9.0 | 19.0 | 0.00 | 0.00 | 0.11 | 85 | 1006.8 |
| 20260831085030 | 63 | 190 | 8.0 | 19.0 | 0.00 | 0.00 | 0.11 | 86 | 1007.0 |
| 20260831084030 | 63 | 197 | 12.0 | 24.0 | 0.00 | 0.00 | 0.11 | 87 | 1006.9 |
| 20260831083030 | 63 | 190 | 9.0 | 24.0 | 0.00 | 0.00 | 0.11 | 89 | 1007.0 |
| 20260831082029 | 62 | 191 | 8.0 | 19.0 | 0.00 | 0.00 | 0.11 | 90 | 1007.0 |
| 20260831081029 | 62 | 202 | 6.0 | 16.0 | 0.00 | 0.00 | 0.11 | 91 | 1007.1 |
| 20260831080030 | 62 | 205 | 7.0 | 17.0 | 0.00 | 0.00 | 0.11 | 91 | 1007.0 |
| 20260831075030 | 62 | 184 | 6.0 | 14.0 | 0.00 | 0.00 | 0.11 | 91 | 1006.9 |
| 20260831074030 | 62 | 167 | 4.0 | 14.0 | 0.00 | 0.00 | 0.11 | 91 | 1006.6 |
| 20260831073030 | 62 | 181 | 3.0 | 11.0 | 0.00 | 0.00 | 0.11 | 91 | 1006.5 |
| 20260831072030 | 62 | 182 | 5.0 | 13.0 | 0.00 | 0.00 | 0.11 | 90 | 1006.9 |
| 20260831071030 | 62 | 199 | 7.0 | 14.0 | 0.00 | 0.00 | 0.11 | 90 | 1007.3 |
| 20260831070030 | 62 | 176 | 6.0 | 19.0 | 0.00 | 0.00 | 0.11 | 89 | 1007.3 |
| 20260831065030 | 62 | 203 | 9.0 | 21.0 | 0.00 | 0.00 | 0.09 | 89 | 1007.4 |
| 20260831064030 | 62 | 205 | 10.0 | 20.0 | 0.00 | 0.00 | 0.06 | 89 | 1007.4 |
| 20260831063030 | 62 | 187 | 9.0 | 19.0 | 0.00 | 0.00 | 0.06 | 90 | 1007.3 |
| 20260831062030 | 62 | 193 | 8.0 | 19.0 | 0.00 | 0.00 | 0.06 | 90 | 1007.3 |
| 20260831061030 | 62 | 190 | 5.0 | 14.0 | 0.00 | 0.00 | 0.06 | 91 | 1007.1 |